Nellis AFB, NV

1:34 AM PST on December 07, 2019 (GMT -0800)
Nellis Air Force Base

Weather History for KLSV - October, 2019

Change the Weather History Date:

Saturday, October 19, 2019

  Actual Average Record
Temperature  
Mean Temperature 62 °F -  
Max Temperature 78 °F 78 °F 91 °F (2003)
Min Temperature 48 °F 52 °F 46 °F (2006)
Degree Days  
Heating Degree Days 2    
Growing Degree Days 12 (Base 50)    
Moisture  
Dew Point 11 °F    
Average Humidity 14    
Maximum Humidity 20    
Minimum Humidity 8    
Precipitation  
Precipitation 0.00 in - - ()
Sea Level Pressure  
Sea Level Pressure 29.84 in    
Wind  
Wind Speed 2 mph (West)    
Max Wind Speed 8 mph    
Max Gust Speed -    
Visibility 10 miles    
Events      
Averages and records for this station are not official NWS values.
T = Trace of Precipitation, MM = Missing Value Source: NWS Daily Summary

Daily Weather History Graph

Daily Weather History Graph

Search for Another Location

Airport or City:

Astronomy

Oct. 19, 2019 Rise Set
Actual Time 6:50 AM PDT 5:59 PM PDT
Civil Twilight 6:24 AM PDT 6:25 PM PDT
Nautical Twilight 5:54 AM PDT 6:54 PM PDT
Astronomical Twilight 5:24 AM PDT 7:24 PM PDT
Moon 10:19 PM PDT (10/19) 12:19 PM PDT (10/19)
Length of Visible Light 12h 00m
Length of Day
11h 08m
Waning Gibbous, 68% of the Moon is Illuminated
Oct 19
Waning Gibbous
Oct 21
Last Quarter
Oct 27
New
Nov 4
First Quarter
Nov 12
Full

Hourly Weather History & Observations

Time (PDT) Temp. Dew Point Humidity Pressure Visibility Wind Dir Wind Speed Gust Speed Precip Events Conditions
12:58 AM 53.4 °F 8.2 °F 16% 29.88 in 10.0 mi Calm Calm - N/A   Clear
1:58 AM 49.3 °F 7.5 °F 18% 29.89 in 10.0 mi NE 3.5 mph - N/A   Clear
2:58 AM 51.4 °F 9.3 °F 18% 29.89 in 10.0 mi North 3.5 mph - N/A   Clear
3:58 AM 52.2 °F 11.1 °F 19% 29.89 in 10.0 mi WNW 4.6 mph - N/A   Clear
4:58 AM 51.3 °F 9.1 °F 18% 29.88 in 10.0 mi West 3.5 mph - N/A   Clear
5:58 AM 48.0 °F 8.8 °F 20% 29.91 in 10.0 mi NE 3.5 mph - N/A   Clear
6:58 AM 48.6 °F 9.3 °F 20% 29.92 in 10.0 mi NNW 3.5 mph - N/A   Clear
7:58 AM 51.1 °F 10.2 °F 19% 29.94 in 10.0 mi Calm Calm - N/A   Clear
8:58 AM 54.3 °F 10.4 °F 17% 29.95 in 10.0 mi Calm Calm - N/A   Clear
9:58 AM 60.8 °F 12.7 °F 15% 29.95 in 10.0 mi Calm Calm - N/A   Clear
10:58 AM 65.3 °F 13.1 °F 13% 29.94 in 10.0 mi Calm Calm - N/A   Clear
11:58 AM 70.9 °F 13.6 °F 11% 29.91 in 10.0 mi Calm Calm - N/A   Clear
12:58 PM 74.1 °F 11.7 °F 9% 29.86 in 10.0 mi Calm Calm - N/A   Clear
1:58 PM 76.3 °F 10.6 °F 8% 29.83 in 10.0 mi WSW 4.6 mph - N/A   Clear
2:58 PM 77.0 °F 11.1 °F 8% 29.81 in 10.0 mi Calm Calm - N/A   Clear
3:58 PM 77.9 °F 11.8 °F 8% 29.77 in 10.0 mi West 4.6 mph - N/A   Clear
4:58 PM 77.2 °F 11.3 °F 8% 29.75 in 10.0 mi SSW 3.5 mph - N/A   Scattered Clouds
5:58 PM 76.6 °F 13.5 °F 9% 29.74 in 10.0 mi WSW 3.5 mph - N/A   Partly Cloudy
6:58 PM 68.9 °F 10.0 °F 10% 29.75 in 10.0 mi Calm Calm - N/A   Partly Cloudy
7:58 PM 67.3 °F 12.9 °F 12% 29.75 in 10.0 mi NNW 4.6 mph - N/A   Clear
8:58 PM 66.6 °F 14.2 °F 13% 29.75 in 10.0 mi SW 3.5 mph - N/A   Clear
9:58 PM 65.3 °F 14.9 °F 14% 29.77 in 10.0 mi South 8.1 mph - N/A   Clear
10:58 PM 68.2 °F 11.7 °F 11% 29.77 in 10.0 mi SSW 5.8 mph - N/A   Clear
11:58 PM 63.9 °F 12.0 °F 13% 29.77 in 10.0 mi Calm Calm - N/A   Clear